Weather History for Scappoose, OR

Change the Weather History Date:

Sunday, November 3, 2013

  Actual Average Record
Temperature  
Mean Temperature 44 °F -  
Max Temperature 52 °F - 73 °F (2010)
Min Temperature 37 °F - 24 °F (2002)
Degree Days  
Heating Degree Days 20    
Month to date heating degree days 51  
Since 1 July heating degree days 621  
Cooling Degree Days 0    
Month to date cooling degree days 0  
Year to date cooling degree days 396  
Moisture  
Dew Point 39 °F    
Average Humidity 79    
Maximum Humidity 92    
Minimum Humidity 66    
Precipitation  
Precipitation 0.05 in - 1.04 in (2005)
Month to date precipitation 0.58  
Year to date precipitation 23.09  
Sea Level Pressure  
Sea Level Pressure 30.11 in    
Wind  
Wind Speed 3 mph (SW)    
Max Wind Speed 17 mph    
Max Gust Speed 26 mph    
Visibility 10 miles    
Events Rain    
T = Trace of Precipitation, MM = Missing Value Source: NWS Daily Summary

Daily Weather History Graph

Daily Weather History Graph

Search for Another Location

Airport:

Trip Planner

Search our weather history database for the weather conditions in past years. The results will help you decide how hot, cold, wet, or windy it might be!

Date:

Astronomy

Nov. 03, 2013 Rise Set
Actual Time 6:54 AM PST 4:54 PM PST
Civil Twilight 6:23 AM PST 5:25 PM PST
Nautical Twilight 5:48 AM PST 6:01 PM PST
Astronomical Twilight 5:13 AM PST 6:35 PM PST
Moon 7:05 AM PST (11/3) 5:11 PM PST (11/3)
Length of Visible Light 11h 02m
Length of Day
9h 59m
New Moon, 0% of the Moon is Illuminated
Nov 3
New Moon
Nov 9
First Quarter
Nov 17
Full
Nov 25
Last Quarter
Dec 2
New

Hourly Weather History & Observations

Time (PST) Temp. Windchill Dew Point Humidity Pressure Visibility Wind Dir Wind Speed Gust Speed Precip Events Conditions
12:53 AM 43.0 °F 38.8 °F 37.9 °F 82% 30.05 in 10.0 mi SW 6.9 mph - 0.00 in Rain Light Rain
1:53 AM 39.0 °F 34.8 °F 35.1 °F 86% 30.06 in 10.0 mi SSW 5.8 mph - 0.00 in   Scattered Clouds
1:53 AM 37.9 °F 34.4 °F 36.0 °F 93% 30.07 in 10.0 mi SSW 4.6 mph - 0.00 in   Mostly Cloudy
2:53 AM 39.9 °F 36.7 °F 36.0 °F 86% 30.06 in 10.0 mi ESE 4.6 mph - 0.00 in   Scattered Clouds
3:53 AM 41.0 °F 39.0 °F 36.0 °F 82% 30.07 in 10.0 mi WSW 3.5 mph - N/A   Scattered Clouds
4:53 AM 41.0 °F - 37.0 °F 86% 30.08 in 10.0 mi Calm Calm - N/A   Overcast
5:48 AM 39.2 °F 37.0 °F 37.4 °F 93% 30.09 in 10.0 mi WNW 3.5 mph - N/A   Overcast
5:53 AM 39.9 °F - 37.0 °F 89% 30.09 in 10.0 mi Calm Calm - N/A   Overcast
6:53 AM 37.9 °F - 36.0 °F 93% 30.11 in 10.0 mi Calm Calm - N/A   Mostly Cloudy
7:53 AM 39.9 °F - 37.9 °F 93% 30.12 in 10.0 mi Calm Calm - N/A   Overcast
8:53 AM 45.0 °F - 39.9 °F 82% 30.13 in 10.0 mi Calm Calm - N/A   Clear
9:53 AM 50.0 °F - 41.0 °F 71% 30.13 in 10.0 mi SW 6.9 mph - N/A   Clear
10:53 AM 50.0 °F - 39.9 °F 68% 30.14 in 10.0 mi SW 9.2 mph - N/A   Mostly Cloudy
11:53 AM 48.9 °F - 42.1 °F 77% 30.13 in 10.0 mi SW 11.5 mph - 0.00 in   Mostly Cloudy
12:53 PM 50.0 °F - 42.1 °F 74% 30.11 in 10.0 mi SSW 10.4 mph - N/A   Mostly Cloudy
1:42 PM 46.0 °F 43.1 °F 39.9 °F 79% 30.13 in 2.5 mi NNW 5.8 mph 25.3 mph 0.05 in Rain Rain
1:49 PM 46.4 °F - 39.2 °F 76% 30.12 in 8.0 mi Calm Calm - 0.05 in Rain Light Rain
1:53 PM 46.0 °F - 39.9 °F 79% 30.12 in 10.0 mi Calm Calm - 0.05 in Rain Light Rain
2:53 PM 48.9 °F - 43.0 °F 80% 30.13 in 10.0 mi East 3.5 mph - 0.00 in   Mostly Cloudy
3:53 PM 48.0 °F - 41.0 °F 77% 30.12 in 10.0 mi West 6.9 mph - 0.00 in Rain Light Rain
4:53 PM 46.9 °F - 42.1 °F 83% 30.11 in 10.0 mi Calm Calm - 0.00 in   Overcast
5:53 PM 46.0 °F - 41.0 °F 83% 30.11 in 10.0 mi Calm Calm - N/A   Overcast
6:53 PM 45.0 °F 43.5 °F 42.1 °F 90% 30.12 in 10.0 mi NW 3.5 mph - N/A   Overcast
7:53 PM 44.1 °F 41.5 °F 41.0 °F 89% 30.13 in 10.0 mi WSW 4.6 mph - N/A   Overcast
8:53 PM 45.0 °F - 41.0 °F 86% 30.13 in 10.0 mi Calm Calm - N/A   Overcast
9:53 PM 44.1 °F - 41.0 °F 89% 30.14 in 10.0 mi Calm Calm - N/A   Overcast
10:53 PM 44.1 °F - 41.0 °F 89% 30.13 in 10.0 mi Calm Calm - N/A   Overcast